This demonstration page uses our WeatherBlox Daily Observations layout. Learn more.

Left ArrowRight Arrow

41.55636, -103.73856

Hourly Observations for June 2, 2019

Temp ( °F °C ) Dew Point ( °F °C ) Humidity (%) Winds ( mph kmh ) Pressure ( in mb ) Visibility ( mi km ) Precip ( " mm )
6:58 pm 18:58 undefined 61 16.3 44 6.4 52 52 ESE 3 6 29.96 1015 10 16 0.01 0.25
7:58 pm 19:58 undefined 57 14.1 49 9.4 74 74 S 3 6 29.97 1015 10 16 0.00 0.00
8:58 pm 20:58 undefined 55 12.8 48 9.1 78 78 S 8 13 29.97 1015 10 16 0.00 0.00
9:58 pm 21:58 undefined 54 12 48 9.1 83 83 S 7 11 30.00 1016 10 16 0.00 0.00
10:58 pm 22:58 undefined 52 11 47 8.6 85 85 SSW 9 15 29.99 1016 10 16 0.00 0.00
11:58 pm 23:58 undefined 52 10.9 47 8.6 86 86 SSW 10 17 29.98 1015 10 16 0.00 0.00
12:58 am 00:58 undefined 50 10.1 47 8.3 89 89 SSW 10 17 29.98 1015 10 16 0.00 0.00
1:58 am 01:58 undefined 49 9.7 47 8.2 90 90 S 8 13 29.97 1015 10 16 0.00 0.00
2:58 am 02:58 undefined 49 9.6 47 8.1 90 90 S 8 13 29.96 1015 10 16 0.00 0.00
3:58 am 03:58 undefined 49 9.5 47 8.1 91 91 S 10 17 29.94 1014 10 16 0.00 0.00
4:58 am 04:58 undefined 48 8.8 46 7.6 92 92 SSW 9 15 29.94 1014 9 14 0.00 0.00
5:58 am 05:58 undefined 49 9.3 46 7.8 90 90 SSW 8 13 29.95 1014 10 16 0.00 0.00
6:58 am 06:58 undefined 54 12 50 10 88 88 S 6 9 29.94 1014 10 16 0.00 0.00
7:58 am 07:58 undefined 58 14.2 52 11 81 81 S 9 15 29.94 1014 10 16 0.00 0.00
8:58 am 08:58 undefined 62 16.5 52 11.3 72 72 S 15 24 29.94 1014 10 16 0.00 0.00
9:58 am 09:58 undefined 65 18.1 53 11.8 67 67 S 18 30 29.93 1014 10 16 0.00 0.00
10:58 am 10:58 undefined 69 20.3 52 11.1 56 56 S 17 28 29.92 1013 10 16 0.00 0.00
11:58 am 11:58 undefined 72 22.1 50 10 46 46 S 18 30 29.90 1013 10 16 0.00 0.00
12:58 pm 12:58 undefined 74 23.5 51 10.5 44 44 S 17 28 29.87 1011 10 16 0.00 0.00
1:58 pm 13:58 undefined 76 24.5 49 9.7 39 39 S 15 24 29.86 1011 10 16 0.00 0.00
2:58 pm 14:58 undefined 75 23.9 50 9.9 41 41 S 9 15 29.85 1011 10 16 0.00 0.00
3:58 pm 15:58 undefined 77 24.8 52 11.2 43 43 S 10 17 29.86 1011 10 16 0.00 0.00
4:58 pm 16:58 Partly Cloudy with Strong Thunderstorms 57 13.7 47 8.4 71 71 Calm 29.91 1013 10 16 0.32 8.13
5:58 pm 17:58 Partly Cloudy with Thunderstorms 58 14.5 49 9.6 73 73 ESE 14 22 29.87 1011 10 16 0.03 0.76

Powered by AerisWeather